sat.trackr.live / text

‹ back to catalog

YAOGAN-31 02B

NORAD 47533 · 2021-007B

PAYLOAD ACTIVE UNKNOWN

§ Identity

Operator
Country
PRC
Launch date
2021-01-29
Launch site
JSC
Launch vehicle
Mass (kg)
RCS (m²)

External: N2YO · Heavens-Above · Gunter

§ Orbital elements

Epoch: 2026-09-20T22:09:22.562784Z

Period
107.03 min
Inclination
63.4013°
Eccentricity
0.0184768
Mean motion
13.45454105 rev/d
Perigee alt
951.1 km
Apogee alt
1,227.0 km
Semi-major
7,467.2 km
B*
1.5666e-4
RAAN
256.0717°
Arg perigee
0.9404°
Mean anomaly
359.1935°
Rev number
27,711

§ Raw data

YAOGAN-31 02B1 47533U 21007B   26263.92317781  .00000013  00000+0  15666-3 0  99992 47533  63.4013 256.0717 0184768   0.9404 359.1935 13.45454105277115

JSON: /api/v1/satellites/47533 · /tle

For live sub-satellite position, see the globe view (requires WebGL).

§ Visibility from observer

Set your observer location to see the next 7 days of passes ≥ 10°. The values pass through the URL so the page stays shareable.

No JS? Fill the form by hand. The geolocation button needs JavaScript.